Location: Fours
(44.3167°N, 6.7000°E)
Time: 19:21:00
(UTC+00:00)

N. Korean satellite - Pass Details

Date: 07 October 2021
Orbit: 450 x 495 km, 97.3° (Epoch: 25 October)

Event Time Altitude Azimuth Distance (km) Brightness Sun altitude
Rises 04:09:55 0° 24° (NNE) 2,570 10.7 -16.6°
Reaches altitude 10° 04:12:15 10° 38° (NE) 1,689 10.0 -16.2°
Maximum altitude 04:15:18 25° 95° (E) 1,030 9.1 -15.6°
Drops below altitude 10° 04:18:21 10° 152° (SSE) 1,688 9.6 -15.1°
Sets 04:20:41 0° 166° (SSE) 2,567 10.3 -14.7°
